TimeCST,TemperatureF,Dew PointF,Humidity,Sea Level PressureIn,VisibilityMPH,Wind Direction,Wind SpeedMPH,Gust SpeedMPH,PrecipitationIn,Events,Conditions,WindDirDegrees,DateUTC
12:08 AM,35.6,24.8,65,29.63,10.0,SSE,11.5,18.4,N/A,,Light Drizzle,160,2012-12-06 06:08:00
12:29 AM,35.6,24.8,65,29.62,10.0,SSE,12.7,18.4,N/A,Rain,Light Rain,160,2012-12-06 06:29:00
12:48 AM,33.8,26.6,75,29.63,10.0,South,10.4,19.6,N/A,,Mostly Cloudy,180,2012-12-06 06:48:00
1:08 AM,33.8,26.6,75,29.61,10.0,South,10.4,17.3,N/A,,Scattered Clouds,170,2012-12-06 07:08:00
1:29 AM,35.6,26.6,70,29.60,10.0,South,10.4,18.4,N/A,,Clear,170,2012-12-06 07:29:00
1:48 AM,35.6,26.6,70,29.60,10.0,South,9.2,17.3,N/A,,Scattered Clouds,170,2012-12-06 07:48:00
2:08 AM,35.6,26.6,70,29.60,10.0,South,9.2,-,N/A,,Scattered Clouds,180,2012-12-06 08:08:00
2:28 AM,35.6,28.4,75,29.60,10.0,South,9.2,16.1,N/A,,Clear,180,2012-12-06 08:28:00
2:48 AM,35.6,28.4,75,29.60,10.0,South,8.1,-,N/A,,Clear,180,2012-12-06 08:48:00
3:08 AM,35.6,28.4,75,29.60,10.0,South,10.4,16.1,N/A,,Clear,180,2012-12-06 09:08:00
3:28 AM,35.6,28.4,75,29.59,10.0,South,9.2,16.1,N/A,,Clear,190,2012-12-06 09:28:00
3:48 AM,35.6,28.4,75,29.59,10.0,SSW,11.5,18.4,N/A,,Clear,200,2012-12-06 09:48:00
4:09 AM,35.6,28.4,75,29.60,10.0,SSW,12.7,21.9,N/A,,Clear,210,2012-12-06 10:09:00
4:28 AM,35.6,28.4,75,29.61,10.0,SW,17.3,23.0,N/A,,Mostly Cloudy,220,2012-12-06 10:28:00
4:48 AM,35.6,28.4,75,29.62,10.0,WSW,16.1,24.2,N/A,,Overcast,240,2012-12-06 10:48:00
5:09 AM,35.6,30.2,81,29.63,10.0,WSW,12.7,-,N/A,,Overcast,240,2012-12-06 11:09:00
5:28 AM,33.8,30.2,87,29.63,10.0,WSW,16.1,-,N/A,,Overcast,240,2012-12-06 11:28:00
6:09 AM,33.8,30.2,87,29.64,10.0,SW,12.7,-,N/A,,Overcast,230,2012-12-06 12:09:00
6:28 AM,33.8,30.2,87,29.65,7.0,WSW,11.5,-,N/A,,Overcast,240,2012-12-06 12:28:00
6:48 AM,33.8,30.2,87,29.66,10.0,WSW,13.8,17.3,N/A,,Overcast,240,2012-12-06 12:48:00
7:09 AM,33.8,30.2,87,29.66,7.0,WSW,16.1,23.0,N/A,,Overcast,250,2012-12-06 13:09:00
7:28 AM,32.0,30.2,93,29.67,7.0,WSW,16.1,26.5,N/A,,Overcast,250,2012-12-06 13:28:00
7:48 AM,32.0,30.2,93,29.68,10.0,WSW,13.8,21.9,N/A,,Overcast,250,2012-12-06 13:48:00
8:09 AM,32.0,30.2,93,29.68,10.0,West,17.3,21.9,N/A,,Overcast,260,2012-12-06 14:09:00
8:28 AM,30.2,28.4,93,29.70,10.0,West,17.3,23.0,N/A,,Overcast,270,2012-12-06 14:28:00
8:48 AM,28.4,26.6,93,29.71,10.0,West,15.0,21.9,N/A,,Overcast,270,2012-12-06 14:48:00
9:08 AM,28.4,26.6,93,29.72,10.0,West,12.7,19.6,N/A,,Overcast,260,2012-12-06 15:08:00
9:28 AM,28.4,24.8,86,29.74,10.0,West,18.4,23.0,N/A,,Overcast,260,2012-12-06 15:28:00
9:49 AM,26.6,24.8,93,29.75,10.0,West,16.1,23.0,N/A,,Overcast,260,2012-12-06 15:49:00
10:08 AM,26.6,23.0,86,29.76,10.0,West,15.0,21.9,N/A,,Overcast,270,2012-12-06 16:08:00
10:28 AM,26.6,21.2,80,29.78,10.0,West,16.1,23.0,N/A,,Overcast,270,2012-12-06 16:28:00
10:49 AM,24.8,21.2,86,29.79,10.0,West,17.3,21.9,N/A,,Overcast,270,2012-12-06 16:49:00
11:08 AM,24.8,21.2,86,29.79,10.0,West,17.3,21.9,N/A,,Overcast,270,2012-12-06 17:08:00
11:28 AM,24.8,19.4,80,29.80,10.0,West,15.0,21.9,N/A,,Overcast,280,2012-12-06 17:28:00
11:49 AM,24.8,19.4,80,29.81,10.0,West,15.0,20.7,N/A,,Overcast,270,2012-12-06 17:49:00
12:08 PM,24.8,19.4,80,29.81,10.0,West,13.8,21.9,N/A,,Overcast,260,2012-12-06 18:08:00
12:28 PM,23.0,17.6,80,29.82,10.0,West,19.6,27.6,N/A,,Overcast,260,2012-12-06 18:28:00
12:48 PM,23.0,17.6,80,29.82,10.0,West,17.3,-,N/A,,Overcast,260,2012-12-06 18:48:00
1:08 PM,23.0,17.6,80,29.83,10.0,West,16.1,23.0,N/A,,Overcast,270,2012-12-06 19:08:00
1:29 PM,23.0,17.6,80,29.83,10.0,West,16.1,20.7,N/A,,Overcast,260,2012-12-06 19:29:00
1:48 PM,23.0,17.6,80,29.83,10.0,West,16.1,21.9,N/A,,Overcast,260,2012-12-06 19:48:00
2:08 PM,21.2,17.6,86,29.84,10.0,West,13.8,-,N/A,,Overcast,280,2012-12-06 20:08:00
2:29 PM,23.0,17.6,80,29.84,10.0,West,12.7,19.6,N/A,,Overcast,270,2012-12-06 20:29:00
2:48 PM,21.2,17.6,86,29.85,10.0,West,15.0,20.7,N/A,,Overcast,260,2012-12-06 20:48:00
3:08 PM,21.2,17.6,86,29.86,10.0,West,13.8,18.4,N/A,,Overcast,270,2012-12-06 21:08:00
3:29 PM,21.2,17.6,86,29.86,10.0,West,11.5,-,N/A,,Overcast,260,2012-12-06 21:29:00
3:48 PM,21.2,17.6,86,29.87,10.0,West,11.5,-,N/A,,Overcast,270,2012-12-06 21:48:00
4:08 PM,23.0,17.6,80,29.87,10.0,West,9.2,-,N/A,,Overcast,260,2012-12-06 22:08:00
4:29 PM,23.0,19.4,86,29.87,10.0,West,12.7,-,N/A,,Overcast,260,2012-12-06 22:29:00
4:48 PM,23.0,19.4,86,29.87,10.0,West,13.8,-,N/A,,Overcast,260,2012-12-06 22:48:00
5:08 PM,23.0,19.4,86,29.88,10.0,West,12.7,18.4,N/A,,Overcast,260,2012-12-06 23:08:00
5:29 PM,24.8,19.4,80,29.88,10.0,West,11.5,17.3,N/A,,Overcast,260,2012-12-06 23:29:00
5:48 PM,23.0,19.4,86,29.88,10.0,West,16.1,-,N/A,,Overcast,260,2012-12-06 23:48:00
6:08 PM,23.0,17.6,80,29.89,10.0,West,12.7,19.6,N/A,,Overcast,270,2012-12-07 00:08:00
6:28 PM,23.0,17.6,80,29.89,10.0,West,11.5,-,N/A,,Overcast,260,2012-12-07 00:28:00
6:48 PM,23.0,17.6,80,29.90,10.0,West,13.8,19.6,N/A,,Overcast,260,2012-12-07 00:48:00
7:08 PM,23.0,17.6,80,29.90,10.0,West,15.0,-,N/A,,Overcast,260,2012-12-07 01:08:00
7:48 PM,21.2,17.6,86,29.91,10.0,WSW,12.7,17.3,N/A,,Overcast,250,2012-12-07 01:48:00
8:28 PM,21.2,15.8,80,29.91,10.0,West,13.8,19.6,N/A,,Overcast,260,2012-12-07 02:28:00
8:48 PM,21.2,15.8,80,29.91,10.0,West,12.7,18.4,N/A,,Overcast,270,2012-12-07 02:48:00
9:09 PM,21.2,17.6,86,29.91,10.0,West,13.8,20.7,N/A,,Overcast,270,2012-12-07 03:09:00
9:28 PM,21.2,15.8,80,29.92,10.0,West,10.4,19.6,N/A,,Overcast,280,2012-12-07 03:28:00
9:48 PM,21.2,17.6,86,29.92,10.0,West,10.4,-,N/A,,Overcast,270,2012-12-07 03:48:00
10:08 PM,21.2,17.6,86,29.92,10.0,West,9.2,-,N/A,,Overcast,270,2012-12-07 04:08:00
10:29 PM,21.2,17.6,86,29.92,10.0,West,9.2,-,N/A,,Overcast,270,2012-12-07 04:29:00
10:48 PM,21.2,17.6,86,29.92,10.0,WNW,9.2,16.1,N/A,,Overcast,290,2012-12-07 04:48:00
11:08 PM,21.2,17.6,86,29.93,10.0,West,9.2,-,N/A,,Overcast,280,2012-12-07 05:08:00
11:29 PM,21.2,17.6,86,29.93,10.0,West,8.1,-,N/A,,Overcast,270,2012-12-07 05:29:00
11:48 PM,23.0,17.6,80,29.94,10.0,West,9.2,-,N/A,,Overcast,260,2012-12-07 05:48:00